This demonstration page uses our WeatherBlox Daily Observations layout. Learn more.

Hourly Observations for June 2, 2020

Temp ( °F °C ) Dew Point ( °F °C ) Humidity (%) Winds ( mph kmh ) Pressure ( in mb ) Visibility ( mi km ) Precip ( " mm )
12:54 am 00:54 Clear 75 23.9 62 16.7 64 64 SSW 14 22 29.89 1012 10 16.0934 0 0
1:54 am 01:54 Clear 73 22.8 62 16.7 69 69 SSW 13 20 29.89 1012 10 16.0934 0 0
2:54 am 02:54 Clear 72 22.2 61 16.1 68 68 SSW 13 20 29.88 1012 10 16.0934 0 0
3:54 am 03:54 Clear 71 21.7 61 16.1 71 71 S 14 22 29.87 1012 10 16.0934 0 0
4:54 am 04:54 Clear 70 21.1 61 16.1 73 73 SSW 14 22 29.87 1011 10 16.0934 0 0
5:54 am 05:54 Clear 69 20.6 61 16.1 76 76 SSW 12 19 29.88 1012 10 16.0934 0 0
6:54 am 06:54 Sunny 70 21.1 61 16.1 73 73 SSW 13 20 29.88 1012 10 16.0934 0 0
7:54 am 07:54 Sunny 73 22.8 62 16.7 69 69 SSW 16 26 29.88 1012 10 16.0934 0 0
8:54 am 08:54 Sunny 75 23.9 63 17.2 66 66 SSW 14 22 29.89 1012 10 16.0934 0 0
9:54 am 09:54 Sunny 79 26.1 64 17.8 60 60 SSW 12 19 29.88 1012 10 16.0934 0 0
10:54 am 10:54 Sunny 84 28.9 64 17.8 51 51 SSW 15 24 29.86 1011 10 16.0934 0 0
11:54 am 11:54 Sunny 88 31.1 65 18.3 46 46 S 16 26 29.84 1011 10 16.0934 0 0
12:54 pm 12:54 Sunny 90 32.2 64 17.8 42 42 SW 17 28 29.84 1011 10 16.0934 0 0
1:54 pm 13:54 Sunny 92 33.3 66 18.9 43 43 SSW 15 24 29.83 1010 10 16.0934 0 0
2:54 pm 14:54 Sunny 95 35 64 17.8 36 36 SSW 17 28 29.8 1009 10 16.0934 0 0
3:54 pm 15:54 Sunny 96 35.6 63 17.2 34 34 SW 21 33 29.8 1009 10 16.0934 0 0
4:54 pm 16:54 Sunny 94 34.4 62 16.7 35 35 S 18 30 29.8 1009 10 16.0934 0 0
5:54 pm 17:54 Sunny 94 34.4 61 16.1 33 33 SSW 16 26 29.79 1009 10 16.0934 0 0
6:54 pm 18:54 Sunny 90 32.2 63 17.2 41 41 SSW 12 19 29.79 1009 10 16.0934 0 0
7:54 pm 19:54 Sunny 87 30.6 67 19.4 51 51 S 12 19 29.78 1009 10 16.0934 0 0
8:54 pm 20:54 Clear 86 30 64 17.8 48 48 SSW 12 19 29.79 1009 10 16.0934 0 0
9:54 pm 21:54 Clear 83 28.3 65 18.3 55 55 SSW 9 15 29.81 1010 10 16.0934 0 0
10:54 pm 22:54 Clear 82 27.8 66 18.9 58 58 SSW 13 20 29.83 1010 10 16.0934 0 0
11:54 pm 23:54 Clear 81 27.2 66 18.9 61 61 WSW 7 11 29.84 1011 10 16.0934 0 0

Powered by AerisWeather